Orbital Elements at Epoch 2459200.5 (2020-Dec-17.0) TDB
Reference: JPL 16 (heliocentric ecliptic J2000)
Element | Value | Uncertainty (1-sigma) | Units |
e | .185225799008447 | 7.5682e-08 | |
a | 2.571029340421031 | 1.4004e-08 | au |
q | 2.094808376567385 | 1.868e-07 | au |
i | 11.6968495994967 | 3.7135e-06 | deg |
node | 327.6151474811694 | 3.0056e-05 | deg |
peri | 1.303276039617978 | 3.5747e-05 | deg |
M | 66.7732520506693 | 2.3071e-05 | deg |
tp | 2458921.207673657474 (2020-Mar-12.70767366) | 9.5047e-05 | TDB |
period | 1505.771164283162 4.12 | 1.2302e-05 3.368e-08 | d yr |
n | .2390801527743305 | 1.9533e-09 | deg/d |
Q | 3.047250304274677 | 1.6598e-08 | au |
|
| | Orbit Determination Parameters
Additional Information
|